Zurück zum Katalog

PEGASUS DEB

AktivPO
NORAD 29033·DEBRIS·🇺🇸 United States

Gestartet May 19, 1994 von Vandenberg Space Force Base

Loading…

Nächste Überflüge (nächste 24 Stunden)

TLE

AktuellSource: Space-Track

Epoche: Sep 14, 2026, 14:57 UTC

1 29033U 94029AEQ 26257.62337060  .00007690  00000-0  95365-3 0  9993
2 29033  81.9594 219.6061 0155824 103.8931 257.9666 14.74209572242291

Verfolge PEGASUS DEB in Echtzeit mit AllMySat

Download on the App Store